Jackson, TN

7:08 PM CDT on March 30, 2017 (GMT -0500)
McKellar-Sipes Regional

Weather History for KMKL - March, 2012

Change the Weather History Date:

Thursday, March 29, 2012

  Actual Average Record
Temperature  
Mean Temperature 67 °F 55 °F  
Max Temperature 81 °F 67 °F 86 °F (1963)
Min Temperature 53 °F 43 °F 24 °F (2015)
Degree Days  
Heating Degree Days 0 11  
Month to date heating degree days 157 424  
Since 1 July heating degree days 2613 3308  
Cooling Degree Days 2 1  
Month to date cooling degree days 53 5  
Year to date cooling degree days 53 6  
Growing Degree Days 18 (Base 50)    
Moisture  
Dew Point 56 °F    
Average Humidity 68    
Maximum Humidity 93    
Minimum Humidity 42    
Precipitation  
Precipitation 0.00 in 0.17 in 2.10 in (1965)
Month to date precipitation 4.18 4.41  
Year to date precipitation 9.72 12.65  
Snow  
Snow 0.00 in - - ()
Month to date snowfall 0.0  
Snow Depth 0.00 in    
Sea Level Pressure  
Sea Level Pressure 29.94 in    
Wind  
Wind Speed 4 mph (SSW)    
Max Wind Speed 10 mph    
Max Gust Speed 14 mph    
Visibility 9 miles    
Events      
T = Trace of Precipitation, MM = Missing Value Source: NWS Daily Summary

Daily Weather History Graph

Daily Weather History Graph

Search for Another Location

Airport or City:

Trip Planner

Search our weather history database for the weather conditions in past years. The results will help you decide how hot, cold, wet, or windy it might be!

Date:

Astronomy

Mar. 29, 2012 Rise Set
Actual Time 6:45 AM CDT 7:15 PM CDT
Civil Twilight 6:20 AM CDT 7:40 PM CDT
Nautical Twilight 5:50 AM CDT 8:11 PM CDT
Astronomical Twilight 5:19 AM CDT 8:41 PM CDT
Moon 11:04 AM CDT (3/29) 12:56 AM CDT (3/29)
Length of Visible Light 13h 20m
Length of Day
12h 29m
Waxing Crescent, 39% of the Moon is Illuminated
Mar 29
Waxing Crescent
Mar 30
First Quarter
Apr 6
Full
Apr 13
Last Quarter
Apr 21
New

Hourly Weather History & Observations

Time (CDT) Temp. Heat Index Dew Point Humidity Pressure Visibility Wind Dir Wind Speed Gust Speed Precip Events Conditions
12:53 AM 64.0 °F - 55.9 °F 75% 29.98 in 10.0 mi SW 6.9 mph - N/A   Clear
1:53 AM 62.1 °F - 55.0 °F 78% 29.97 in 10.0 mi SSW 4.6 mph - N/A   Clear
2:53 AM 59.0 °F - 54.0 °F 83% 29.97 in 10.0 mi SSW 4.6 mph - N/A   Clear
3:53 AM 55.9 °F - 54.0 °F 93% 29.98 in 10.0 mi South 3.5 mph - N/A   Clear
4:53 AM 55.9 °F - 54.0 °F 93% 29.99 in 9.0 mi Calm Calm - N/A   Clear
5:53 AM 54.0 °F - 52.0 °F 93% 29.99 in 8.0 mi Calm Calm - N/A   Clear
6:53 AM 54.0 °F - 52.0 °F 93% 30.01 in 5.0 mi Calm Calm - N/A   Clear
7:53 AM 57.9 °F - 55.0 °F 90% 30.02 in 7.0 mi Calm Calm - N/A   Clear
8:53 AM 68.0 °F - 59.0 °F 73% 30.02 in 10.0 mi SW 5.8 mph - N/A   Clear
2:53 PM 81.0 °F 81.0 °F 57.0 °F 44% 29.92 in 10.0 mi Variable 6.9 mph - N/A   Partly Cloudy
3:53 PM 81.0 °F 80.7 °F 55.0 °F 41% 29.89 in 10.0 mi WSW 5.8 mph - N/A   Clear
4:53 PM 80.1 °F 80.1 °F 55.0 °F 42% 29.88 in 10.0 mi West 5.8 mph - N/A   Partly Cloudy
5:53 PM 79.0 °F - 57.0 °F 47% 29.88 in 10.0 mi SSW 6.9 mph - N/A   Partly Cloudy
6:53 PM 73.9 °F - 57.9 °F 57% 29.89 in 10.0 mi South 3.5 mph - N/A   Clear
7:53 PM 71.1 °F - 57.9 °F 63% 29.90 in 10.0 mi Calm Calm - N/A   Partly Cloudy
8:53 PM 66.9 °F - 59.0 °F 76% 29.91 in 10.0 mi South 3.5 mph - N/A   Scattered Clouds
9:53 PM 63.0 °F - 59.0 °F 87% 29.92 in 10.0 mi South 3.5 mph - N/A   Scattered Clouds
10:53 PM 66.0 °F - 57.9 °F 75% 29.91 in 10.0 mi South 4.6 mph - N/A   Partly Cloudy
11:53 PM 64.9 °F - 57.9 °F 78% 29.90 in 10.0 mi SSW 5.8 mph - N/A   Clear